Flag for Germany Weather past 2 weeks in Oberursel (Taunus), Hesse, Germany

Now
47 °F

Overcast.


Feels Like: 42 °F
Forecast: 45 / 51 °F
Wind: 10 mph from Southwest

Location: Frankfurt / M-Flughafen

Current Time: Dec 22, 2014 at 7:13:06 PM

Latest Report: Dec 22, 2014 at 7:00 PM


Visibility: 25 mi

Pressure: 30.22 "Hg

Humidity: 81%

Dew point: 41 °F

Location of Oberursel (Taunus)Location

Historic Weather in Oberursel (Taunus) — Graph

°F

Oberursel (Taunus) temperature yesterday

Maximum temperature yesterday: 45 °F (at 7:00 PM)
Minimum temperature yesterday: 36 °F (at 3:00 AM)
Average temperature yesterday: 42 °F

Past Weeks' High & Low Weather Summary

 TemperatureHumidityPressure
High57 °F (Dec 18, 9:00 PM)100% (Dec 8, 6:00 AM)30.49 "Hg (Dec 8, 6:00 AM)
Low29 °F (Dec 8, 11:00 PM)67% (Dec 12, 8:00 PM)29.62 "Hg (Dec 12, 6:00 PM)
Average42 °F89%30.06 "Hg
* Reported Dec 7 6:00 PM — Dec 22 6:00 PM, Oberursel (Taunus), Weather by CustomWeather, © 2014

Note: Actual official high and low records may vary slightly from our data, if they occured in-between our weather recording intervals... More about our weather records

Advertising

Oberursel (Taunus) weather history for previous 24 hours

 ConditionsComfort  
Time TempWeatherWind HumidityBarometerVisibility
6:00 PM
Dec 22
47 °FOvercast.9 mph82%30.22 "Hg25 mi
5:00 PM47 °FOvercast.8 mph80%30.22 "Hg25 mi
3:00 PM47 °FOvercast.10 mph78%30.22 "Hg22 mi
2:00 PM47 °FOvercast.12 mph77%30.23 "Hg25 mi
1:00 PM46 °FOvercast.12 mph78%30.26 "Hg25 mi
12:00 PM46 °FOvercast.14 mph77%30.27 "Hg19 mi
11:00 AM46 °FOvercast.14 mph80%30.27 "Hg19 mi
9:00 AM46 °FOvercast.14 mph79%30.27 "Hg31 mi
8:00 AM46 °FOvercast.15 mph79%30.27 "Hg31 mi
7:00 AM46 °FOvercast.15 mph78%30.26 "Hg31 mi
6:00 AM45 °FOvercast.15 mph77%30.27 "Hg31 mi
5:00 AM45 °FOvercast.13 mph77%30.28 "Hg31 mi
3:00 AM45 °FOvercast.10 mph77%30.30 "Hg31 mi
2:00 AM45 °FOvercast.10 mph76%30.32 "Hg31 mi
1:00 AM45 °FOvercast.9 mph76%30.34 "Hg31 mi
12:00 AM45 °FOvercast.12 mph77%30.34 "Hg31 mi
11:00 PM
Dec 21
45 °FOvercast.10 mph77%30.34 "Hg31 mi
9:00 PM45 °FOvercast.10 mph77%30.37 "Hg31 mi
8:00 PM45 °FOvercast.12 mph76%30.38 "Hg31 mi
7:00 PM45 °FOvercast.8 mph75%30.38 "Hg28 mi
Weather by CustomWeather, © 2014

See weather overviewHow to use our weather pages